Preview of NWS' New Version of Forecast
This preview is not operational and should not be used for support decisions.

Regional Weather Roundup (RWR)

Issued by National Weather Service (NWS)

                            
000
ASUS43 KBIS 250810
RWRND 

NORTH DAKOTA REGIONAL WEATHER ROUNDUP
NATIONAL WEATHER SERVICE BISMARCK ND
300 AM CDT SUN AUG 25 2019

NOTE: "FAIR" INDICATES FEW OR NO CLOUDS BELOW 12,000 FEET WITH NO
SIGNIFICANT WEATHER AND/OR OBSTRUCTIONS TO VISIBILITY.


NDZ001>003-009>011-017-250900-
NORTHWEST NORTH DAKOTA
  
CITY           SKY/WX    TMP DP  RH WIND       PRES   REMARKS
WILLISTON      CLEAR     62  57  83 CALM      29.68F                  
MINOT          MOCLDY    67  63  87 SE13      29.69F                  
MINOT AFB      CLEAR     64  63  94 SE14      29.67F                  
$$
 
NDZ018>021-031>035-040>046-250900-
SOUTHWEST NORTH DAKOTA
  
CITY           SKY/WX    TMP DP  RH WIND       PRES   REMARKS
BISMARCK       TSTM      65  63  93 VRB3      29.77F                  
DICKINSON      CLEAR     64  62  93 S10       29.73F                  
GARRISON         N/A     66  62  87 S13       29.71F                  
HETTINGER ARPT CLEAR     61  58  90 SE3       29.78F                  
$$
 
NDZ004>008-012>016-024-026-027-054-250900-
NORTHEAST NORTH DAKOTA
  
CITY           SKY/WX    TMP DP  RH WIND       PRES   REMARKS
GRAND FORKS    CLOUDY    66  55  67 S20G36    29.87F                  
DEVILS LAKE    CLOUDY    66  60  81 S21G30    29.80F                  
$$
 
NDZ022-023-025-028>030-036>039-047>053-250900-
SOUTHEAST NORTH DAKOTA
  
CITY           SKY/WX    TMP DP  RH WIND       PRES   REMARKS
FARGO          CLOUDY    64  55  72 SE16G26   29.92F                  
JAMESTOWN      CLOUDY    65  59  81 S16       29.84F                  
$$